CPX776 Details

Departure: Ben Gurion International Airport (LLBG)
Arrival: Liège Airport (EBLG)
Route: PURLA2G PURLA L53 KAROL L995 RDS UL609 MES UG18 FSK L608 LONTA L608 DOLEV ERKIR UQ863 GUPIN RIDSU L608 LIRSU


Current Weather Information
LLBG 250350Z 26005KT CAVOK 23/21 Q1014 TEMPO 7000 SCT010
EBLG 250350Z 25002KT CAVOK 08/06 Q1017 NOSIG